Year,Month,Day,Hour,Minute,Value (Times are PST for barometer in hPa)
2016,10,15,00,00,999.02
2016,10,15,00,01,999.05
2016,10,15,00,02,999.05
2016,10,15,00,03,999.09
2016,10,15,00,04,999.05
2016,10,15,00,05,999.12
2016,10,15,00,06,999.12
2016,10,15,00,07,999.09
2016,10,15,00,08,999.12
2016,10,15,00,09,999.12
2016,10,15,00,10,999.19
2016,10,15,00,11,999.15
2016,10,15,00,12,999.19
2016,10,15,00,13,999.19
2016,10,15,00,14,999.19
2016,10,15,00,15,999.19
2016,10,15,00,16,999.22
2016,10,15,00,17,999.19
2016,10,15,00,18,999.26
2016,10,15,00,19,999.26
2016,10,15,00,20,999.26
2016,10,15,00,21,999.26
2016,10,15,00,22,999.26
2016,10,15,00,23,999.29
2016,10,15,00,24,999.26
2016,10,15,00,25,999.26
2016,10,15,00,26,999.26
2016,10,15,00,27,999.29
2016,10,15,00,28,999.32
2016,10,15,00,29,999.32
2016,10,15,00,30,999.32
2016,10,15,00,31,999.32
2016,10,15,00,32,999.29
2016,10,15,00,33,999.32
2016,10,15,00,34,999.36
2016,10,15,00,35,999.39
2016,10,15,00,36,999.36
2016,10,15,00,37,999.39
2016,10,15,00,38,999.39
2016,10,15,00,39,999.36
2016,10,15,00,40,999.36
2016,10,15,00,41,999.39
2016,10,15,00,42,999.36
2016,10,15,00,43,999.32
2016,10,15,00,44,999.32
2016,10,15,00,45,999.36
2016,10,15,00,46,999.29
2016,10,15,00,47,999.32
2016,10,15,00,48,999.32
2016,10,15,00,49,999.39
2016,10,15,00,50,999.39
2016,10,15,00,51,999.36
2016,10,15,00,52,999.39
2016,10,15,00,53,999.39
2016,10,15,00,54,999.36
2016,10,15,00,55,999.36
2016,10,15,00,56,999.39
2016,10,15,00,57,999.39
2016,10,15,00,58,999.43
2016,10,15,00,59,999.46
2016,10,15,01,00,999.49
2016,10,15,01,01,999.49
2016,10,15,01,02,999.49
2016,10,15,01,03,999.46
2016,10,15,01,04,999.43
2016,10,15,01,05,999.39
2016,10,15,01,06,999.39
2016,10,15,01,07,999.39
2016,10,15,01,08,999.43
2016,10,15,01,09,999.49
2016,10,15,01,10,999.53
2016,10,15,01,11,999.53
2016,10,15,01,12,999.56
2016,10,15,01,13,999.53
2016,10,15,01,14,999.59
2016,10,15,01,15,999.56
2016,10,15,01,16,999.59
2016,10,15,01,17,999.59
2016,10,15,01,18,999.59
2016,10,15,01,19,999.59
2016,10,15,01,20,999.63
2016,10,15,01,21,999.59
2016,10,15,01,22,999.59
2016,10,15,01,23,999.63
2016,10,15,01,24,999.63
2016,10,15,01,25,999.66
2016,10,15,01,26,999.63
2016,10,15,01,27,999.63
2016,10,15,01,28,999.66
2016,10,15,01,29,999.70
2016,10,15,01,30,999.73
2016,10,15,01,31,999.73
2016,10,15,01,32,999.76
2016,10,15,01,33,999.73
2016,10,15,01,34,999.73
2016,10,15,01,35,999.76
2016,10,15,01,36,999.76
2016,10,15,01,37,999.80
2016,10,15,01,38,999.80
2016,10,15,01,39,999.83
2016,10,15,01,40,999.87
2016,10,15,01,41,999.80
2016,10,15,01,42,999.80
2016,10,15,01,43,999.83
2016,10,15,01,44,999.76
2016,10,15,01,45,999.80
2016,10,15,01,46,999.83
2016,10,15,01,47,999.87
2016,10,15,01,48,999.83
2016,10,15,01,49,999.83
2016,10,15,01,50,999.87
2016,10,15,01,51,999.80
2016,10,15,01,52,999.83
2016,10,15,01,53,999.80
2016,10,15,01,54,999.83
2016,10,15,01,55,999.83
2016,10,15,01,56,999.83
2016,10,15,01,57,999.83
2016,10,15,01,58,999.83
2016,10,15,01,59,999.87
2016,10,15,02,00,999.90
2016,10,15,02,01,999.90
2016,10,15,02,02,999.97
2016,10,15,02,03,1000.00
2016,10,15,02,04,1000.03
2016,10,15,02,05,999.97
2016,10,15,02,06,999.97
2016,10,15,02,07,999.97
2016,10,15,02,08,999.97
2016,10,15,02,09,999.97
2016,10,15,02,10,999.97
2016,10,15,02,11,999.90
2016,10,15,02,12,999.97
2016,10,15,02,13,999.97
2016,10,15,02,14,999.97
2016,10,15,02,15,1000.00
2016,10,15,02,16,999.97
2016,10,15,02,17,1000.00
2016,10,15,02,18,1000.03
2016,10,15,02,19,999.97
2016,10,15,02,20,999.97
2016,10,15,02,21,999.97
2016,10,15,02,22,999.93
2016,10,15,02,23,999.93
2016,10,15,02,24,999.93
2016,10,15,02,25,999.97
2016,10,15,02,26,999.97
2016,10,15,02,27,999.93
2016,10,15,02,28,1000.00
2016,10,15,02,29,1000.03
2016,10,15,02,30,1000.03
2016,10,15,02,31,1000.07
2016,10,15,02,32,1000.10
2016,10,15,02,33,1000.07
2016,10,15,02,34,1000.10
2016,10,15,02,35,1000.10
2016,10,15,02,36,1000.17
2016,10,15,02,37,1000.17
2016,10,15,02,38,1000.17
2016,10,15,02,39,1000.24
2016,10,15,02,40,1000.17
2016,10,15,02,41,1000.14
2016,10,15,02,42,1000.14
2016,10,15,02,43,1000.14
2016,10,15,02,44,1000.10
2016,10,15,02,45,1000.17
2016,10,15,02,46,1000.17
2016,10,15,02,47,1000.17
2016,10,15,02,48,1000.10
2016,10,15,02,49,1000.10
2016,10,15,02,50,1000.10
2016,10,15,02,51,1000.14
2016,10,15,02,52,1000.17
2016,10,15,02,53,1000.17
2016,10,15,02,54,1000.20
2016,10,15,02,55,1000.27
2016,10,15,02,56,1000.24
2016,10,15,02,57,1000.20
2016,10,15,02,58,1000.20
2016,10,15,02,59,1000.17
2016,10,15,03,00,1000.20
2016,10,15,03,01,1000.14
2016,10,15,03,02,1000.14
2016,10,15,03,03,1000.10
2016,10,15,03,04,1000.07
2016,10,15,03,05,1000.07
2016,10,15,03,06,1000.07
2016,10,15,03,07,1000.10
2016,10,15,03,08,1000.14
2016,10,15,03,09,1000.17
2016,10,15,03,10,1000.10
2016,10,15,03,11,1000.10
2016,10,15,03,12,1000.14
2016,10,15,03,13,1000.07
2016,10,15,03,14,1000.03
2016,10,15,03,15,1000.03
2016,10,15,03,16,999.97
2016,10,15,03,17,999.93
2016,10,15,03,18,999.90
2016,10,15,03,19,999.90
2016,10,15,03,20,999.87
2016,10,15,03,21,999.83
2016,10,15,03,22,999.87
2016,10,15,03,23,999.87
2016,10,15,03,24,999.90
2016,10,15,03,25,999.90
2016,10,15,03,26,999.93
2016,10,15,03,27,999.93
2016,10,15,03,28,999.90
2016,10,15,03,29,999.90
2016,10,15,03,30,999.90
2016,10,15,03,31,999.90
2016,10,15,03,32,999.87
2016,10,15,03,33,999.83
2016,10,15,03,34,999.80
2016,10,15,03,35,999.80
2016,10,15,03,36,999.71
2016,10,15,03,37,999.66
2016,10,15,03,38,999.70
2016,10,15,03,39,999.70
2016,10,15,03,40,999.70
2016,10,15,03,41,999.73
2016,10,15,03,42,999.76
2016,10,15,03,43,999.76
2016,10,15,03,44,999.76
2016,10,15,03,45,999.76
2016,10,15,03,46,999.80
2016,10,15,03,47,999.76
2016,10,15,03,48,999.80
2016,10,15,03,49,999.76
2016,10,15,03,50,999.80
2016,10,15,03,51,999.76
2016,10,15,03,52,999.76
2016,10,15,03,53,999.76
2016,10,15,03,54,999.76
2016,10,15,03,55,999.70
2016,10,15,03,56,999.66
2016,10,15,03,57,999.66
2016,10,15,03,58,999.66
2016,10,15,03,59,999.63
2016,10,15,04,00,999.66
2016,10,15,04,01,999.63
2016,10,15,04,02,999.66
2016,10,15,04,03,999.63
2016,10,15,04,04,999.63
2016,10,15,04,05,999.59
2016,10,15,04,06,999.59
2016,10,15,04,07,999.56
2016,10,15,04,08,999.56
2016,10,15,04,09,999.56
2016,10,15,04,10,999.56
2016,10,15,04,11,999.53
2016,10,15,04,12,999.53
2016,10,15,04,13,999.53
2016,10,15,04,14,999.53
2016,10,15,04,15,999.56
2016,10,15,04,16,999.53
2016,10,15,04,17,999.53
2016,10,15,04,18,999.53
2016,10,15,04,19,999.56
2016,10,15,04,20,999.49
2016,10,15,04,21,999.49
2016,10,15,04,22,999.53
2016,10,15,04,23,999.46
2016,10,15,04,24,999.49
2016,10,15,04,25,999.46
2016,10,15,04,26,999.46
2016,10,15,04,27,999.46
2016,10,15,04,28,999.43
2016,10,15,04,29,999.43
2016,10,15,04,30,999.43
2016,10,15,04,31,999.36
2016,10,15,04,32,999.36
2016,10,15,04,33,999.43
2016,10,15,04,34,999.36
2016,10,15,04,35,999.43
2016,10,15,04,36,999.36
2016,10,15,04,37,999.29
2016,10,15,04,38,999.29
2016,10,15,04,39,999.26
2016,10,15,04,40,999.26
2016,10,15,04,41,999.29
2016,10,15,04,42,999.26
2016,10,15,04,43,999.26
2016,10,15,04,44,999.22
2016,10,15,04,45,999.15
2016,10,15,04,46,999.12
2016,10,15,04,47,999.15
2016,10,15,04,48,999.12
2016,10,15,04,49,999.12
2016,10,15,04,50,999.15
2016,10,15,04,51,999.19
2016,10,15,04,52,999.19
2016,10,15,04,53,999.19
2016,10,15,04,54,999.19
2016,10,15,04,55,999.15
2016,10,15,04,56,999.12
2016,10,15,04,57,999.09
2016,10,15,04,58,999.12
2016,10,15,04,59,999.05
2016,10,15,05,00,999.02
2016,10,15,05,01,998.99
2016,10,15,05,02,998.95
2016,10,15,05,03,998.92
2016,10,15,05,04,998.85
2016,10,15,05,05,998.85
2016,10,15,05,06,998.85
2016,10,15,05,07,998.88
2016,10,15,05,08,998.99
2016,10,15,05,09,998.95
2016,10,15,05,10,998.99
2016,10,15,05,11,998.95
2016,10,15,05,12,998.92
2016,10,15,05,13,998.88
2016,10,15,05,14,998.88
2016,10,15,05,15,998.85
2016,10,15,05,16,998.78
2016,10,15,05,17,998.78
2016,10,15,05,18,998.71
2016,10,15,05,19,998.75
2016,10,15,05,20,998.82
2016,10,15,05,21,998.85
2016,10,15,05,22,998.85
2016,10,15,05,23,998.85
2016,10,15,05,24,998.82
2016,10,15,05,25,998.85
2016,10,15,05,26,998.78
2016,10,15,05,27,998.82
2016,10,15,05,28,998.78
2016,10,15,05,29,998.75
2016,10,15,05,30,998.75
2016,10,15,05,31,998.71
2016,10,15,05,32,998.71
2016,10,15,05,33,998.71
2016,10,15,05,34,998.78
2016,10,15,05,35,998.82
2016,10,15,05,36,998.82
2016,10,15,05,37,998.78
2016,10,15,05,38,998.75
2016,10,15,05,39,998.71
2016,10,15,05,40,998.68
2016,10,15,05,41,998.75
2016,10,15,05,42,998.78
2016,10,15,05,43,998.82
2016,10,15,05,44,998.85
2016,10,15,05,45,998.92
2016,10,15,05,46,998.92
2016,10,15,05,47,998.99
2016,10,15,05,48,998.95
2016,10,15,05,49,999.02
2016,10,15,05,50,999.02
2016,10,15,05,51,999.02
2016,10,15,05,52,999.02
2016,10,15,05,53,998.99
2016,10,15,05,54,998.92
2016,10,15,05,55,998.85
2016,10,15,05,56,998.88
2016,10,15,05,57,998.82
2016,10,15,05,58,998.78
2016,10,15,05,59,998.82
2016,10,15,06,00,998.75
2016,10,15,06,01,998.82
2016,10,15,06,02,998.82
2016,10,15,06,03,998.85
2016,10,15,06,04,998.82
2016,10,15,06,05,998.85
2016,10,15,06,06,998.78
2016,10,15,06,07,998.68
2016,10,15,06,08,998.71
2016,10,15,06,09,998.75
2016,10,15,06,10,998.75
2016,10,15,06,11,998.71
2016,10,15,06,12,998.75
2016,10,15,06,13,998.75
2016,10,15,06,14,998.68
2016,10,15,06,15,998.68
2016,10,15,06,16,998.61
2016,10,15,06,17,998.61
2016,10,15,06,18,998.58
2016,10,15,06,19,998.58
2016,10,15,06,20,998.48
2016,10,15,06,21,998.48
2016,10,15,06,22,998.41
2016,10,15,06,23,998.41
2016,10,15,06,24,998.38
2016,10,15,06,25,998.38
2016,10,15,06,26,998.38
2016,10,15,06,27,998.34
2016,10,15,06,28,998.38
2016,10,15,06,29,998.41
2016,10,15,06,30,998.41
2016,10,15,06,31,998.38
2016,10,15,06,32,998.41
2016,10,15,06,33,998.44
2016,10,15,06,34,998.44
2016,10,15,06,35,998.41
2016,10,15,06,36,998.41
2016,10,15,06,37,998.41
2016,10,15,06,38,998.38
2016,10,15,06,39,998.38
2016,10,15,06,40,998.38
2016,10,15,06,41,998.38
2016,10,15,06,42,998.44
2016,10,15,06,43,998.41
2016,10,15,06,44,998.41
2016,10,15,06,45,998.38
2016,10,15,06,46,998.31
2016,10,15,06,47,998.27
2016,10,15,06,48,998.21
2016,10,15,06,49,998.14
2016,10,15,06,50,998.10
2016,10,15,06,51,998.04
2016,10,15,06,52,998.07
2016,10,15,06,53,998.00
2016,10,15,06,54,997.97
2016,10,15,06,55,997.97
2016,10,15,06,56,997.97
2016,10,15,06,57,997.90
2016,10,15,06,58,997.87
2016,10,15,06,59,997.83
2016,10,15,07,00,997.83
2016,10,15,07,01,997.87
2016,10,15,07,02,997.94
2016,10,15,07,03,997.94
2016,10,15,07,04,998.00
2016,10,15,07,05,998.04
2016,10,15,07,06,998.04
2016,10,15,07,07,998.00
2016,10,15,07,08,998.00
2016,10,15,07,09,997.97
2016,10,15,07,10,997.97
2016,10,15,07,11,997.97
2016,10,15,07,12,997.87
2016,10,15,07,13,997.83
2016,10,15,07,14,997.83
2016,10,15,07,15,997.77
2016,10,15,07,16,997.73
2016,10,15,07,17,997.77
2016,10,15,07,18,997.77
2016,10,15,07,19,997.83
2016,10,15,07,20,997.80
2016,10,15,07,21,997.77
2016,10,15,07,22,997.80
2016,10,15,07,23,997.80
2016,10,15,07,24,997.77
2016,10,15,07,25,997.73
2016,10,15,07,26,997.77
2016,10,15,07,27,997.77
2016,10,15,07,28,997.73
2016,10,15,07,29,997.77
2016,10,15,07,30,997.77
2016,10,15,07,31,997.77
2016,10,15,07,32,997.73
2016,10,15,07,33,997.77
2016,10,15,07,34,997.70
2016,10,15,07,35,997.73
2016,10,15,07,36,997.70
2016,10,15,07,37,997.66
2016,10,15,07,38,997.60
2016,10,15,07,39,997.56
2016,10,15,07,40,997.53
2016,10,15,07,41,997.56
2016,10,15,07,42,997.53
2016,10,15,07,43,997.46
2016,10,15,07,44,997.46
2016,10,15,07,45,997.43
2016,10,15,07,46,997.43
2016,10,15,07,47,997.33
2016,10,15,07,48,997.33
2016,10,15,07,49,997.26
2016,10,15,07,50,997.29
2016,10,15,07,51,997.19
2016,10,15,07,52,997.22
2016,10,15,07,53,997.19
2016,10,15,07,54,997.19
2016,10,15,07,55,997.16
2016,10,15,07,56,997.16
2016,10,15,07,57,997.12
2016,10,15,07,58,997.12
2016,10,15,07,59,997.09
2016,10,15,08,00,997.16
2016,10,15,08,01,997.12
2016,10,15,08,02,997.12
2016,10,15,08,03,997.09
2016,10,15,08,04,997.12
2016,10,15,08,05,997.16
2016,10,15,08,06,997.12
2016,10,15,08,07,997.09
2016,10,15,08,08,997.09
2016,10,15,08,09,997.05
2016,10,15,08,10,997.05
2016,10,15,08,11,997.02
2016,10,15,08,12,997.02
2016,10,15,08,13,997.05
2016,10,15,08,14,997.09
2016,10,15,08,15,997.02
2016,10,15,08,16,997.05
2016,10,15,08,17,996.99
2016,10,15,08,18,997.02
2016,10,15,08,19,997.02
2016,10,15,08,20,996.99
2016,10,15,08,21,997.02
2016,10,15,08,22,997.05
2016,10,15,08,23,996.99
2016,10,15,08,24,997.02
2016,10,15,08,25,996.95
2016,10,15,08,26,996.92
2016,10,15,08,27,996.92
2016,10,15,08,28,996.85
2016,10,15,08,29,996.85
2016,10,15,08,30,996.82
2016,10,15,08,31,996.78
2016,10,15,08,32,996.75
2016,10,15,08,33,996.75
2016,10,15,08,34,996.75
2016,10,15,08,35,996.72
2016,10,15,08,36,996.75
2016,10,15,08,37,996.72
2016,10,15,08,38,996.75
2016,10,15,08,39,996.75
2016,10,15,08,40,996.72
2016,10,15,08,41,996.72
2016,10,15,08,42,996.75
2016,10,15,08,43,996.72
2016,10,15,08,44,996.65
2016,10,15,08,45,996.61
2016,10,15,08,46,996.58
2016,10,15,08,47,996.61
2016,10,15,08,48,996.61
2016,10,15,08,49,996.68
2016,10,15,08,50,996.61
2016,10,15,08,51,996.61
2016,10,15,08,52,996.61
2016,10,15,08,53,996.58
2016,10,15,08,54,996.58
2016,10,15,08,55,996.55
2016,10,15,08,56,996.48
2016,10,15,08,57,996.51
2016,10,15,08,58,996.48
2016,10,15,08,59,996.41
2016,10,15,09,00,996.45
2016,10,15,09,01,996.41
2016,10,15,09,02,996.38
2016,10,15,09,03,996.38
2016,10,15,09,04,996.34
2016,10,15,09,05,996.34
2016,10,15,09,06,996.28
2016,10,15,09,07,996.28
2016,10,15,09,08,996.21
2016,10,15,09,09,996.17
2016,10,15,09,10,996.14
2016,10,15,09,11,996.07
2016,10,15,09,12,996.07
2016,10,15,09,13,996.04
2016,10,15,09,14,996.07
2016,10,15,09,15,996.04
2016,10,15,09,16,995.97
2016,10,15,09,17,996.01
2016,10,15,09,18,995.97
2016,10,15,09,19,995.94
2016,10,15,09,20,995.94
2016,10,15,09,21,995.90
2016,10,15,09,22,995.87
2016,10,15,09,23,995.80
2016,10,15,09,24,995.73
2016,10,15,09,25,995.70
2016,10,15,09,26,995.67
2016,10,15,09,27,995.60
2016,10,15,09,28,995.60
2016,10,15,09,29,995.56
2016,10,15,09,30,995.50
2016,10,15,09,31,995.53
2016,10,15,09,32,995.46
2016,10,15,09,33,995.46
2016,10,15,09,34,995.40
2016,10,15,09,35,995.36
2016,10,15,09,36,995.33
2016,10,15,09,37,995.29
2016,10,15,09,38,995.26
2016,10,15,09,39,995.26
2016,10,15,09,40,995.23
2016,10,15,09,41,995.12
2016,10,15,09,42,995.12
2016,10,15,09,43,995.09
2016,10,15,09,44,995.09
2016,10,15,09,45,995.06
2016,10,15,09,46,995.09
2016,10,15,09,47,995.06
2016,10,15,09,48,995.06
2016,10,15,09,49,995.02
2016,10,15,09,50,994.96
2016,10,15,09,51,994.99
2016,10,15,09,52,994.92
2016,10,15,09,53,994.96
2016,10,15,09,54,994.89
2016,10,15,09,55,994.82
2016,10,15,09,56,994.75
2016,10,15,09,57,994.65
2016,10,15,09,58,994.68
2016,10,15,09,59,994.65
2016,10,15,10,00,994.65
2016,10,15,10,01,994.72
2016,10,15,10,02,994.65
2016,10,15,10,03,994.68
2016,10,15,10,04,994.65
2016,10,15,10,05,994.62
2016,10,15,10,06,994.62
2016,10,15,10,07,994.55
2016,10,15,10,08,994.52
2016,10,15,10,09,994.52
2016,10,15,10,10,994.52
2016,10,15,10,11,994.41
2016,10,15,10,12,994.41
2016,10,15,10,13,994.41
2016,10,15,10,14,994.28
2016,10,15,10,15,994.24
2016,10,15,10,16,994.24
2016,10,15,10,17,994.21
2016,10,15,10,18,994.14
2016,10,15,10,19,994.07
2016,10,15,10,20,994.01
2016,10,15,10,21,994.01
2016,10,15,10,22,993.97
2016,10,15,10,23,993.97
2016,10,15,10,24,994.01
2016,10,15,10,25,993.94
2016,10,15,10,26,993.94
2016,10,15,10,27,993.91
2016,10,15,10,28,993.87
2016,10,15,10,29,993.77
2016,10,15,10,30,993.74
2016,10,15,10,31,993.77
2016,10,15,10,32,993.77
2016,10,15,10,33,993.70
2016,10,15,10,34,993.67
2016,10,15,10,35,993.57
2016,10,15,10,36,993.60
2016,10,15,10,37,993.60
2016,10,15,10,38,993.59
2016,10,15,10,39,993.50
2016,10,15,10,40,993.47
2016,10,15,10,41,993.33
2016,10,15,10,42,993.33
2016,10,15,10,43,993.30
2016,10,15,10,44,993.30
2016,10,15,10,45,993.19
2016,10,15,10,46,993.13
2016,10,15,10,47,993.16
2016,10,15,10,48,993.06
2016,10,15,10,49,993.09
2016,10,15,10,50,993.03
2016,10,15,10,51,992.96
2016,10,15,10,52,992.89
2016,10,15,10,53,992.86
2016,10,15,10,54,992.75
2016,10,15,10,55,992.62
2016,10,15,10,56,992.58
2016,10,15,10,57,992.55
2016,10,15,10,58,992.52
2016,10,15,10,59,992.52
2016,10,15,11,00,992.42
2016,10,15,11,01,992.42
2016,10,15,11,02,992.38
2016,10,15,11,03,992.38
2016,10,15,11,04,992.35
2016,10,15,11,05,992.28
2016,10,15,11,06,992.28
2016,10,15,11,07,992.21
2016,10,15,11,08,992.21
2016,10,15,11,09,992.21
2016,10,15,11,10,992.14
2016,10,15,11,11,992.14
2016,10,15,11,12,992.14
2016,10,15,11,13,992.11
2016,10,15,11,14,992.08
2016,10,15,11,15,992.04
2016,10,15,11,16,992.04
2016,10,15,11,17,992.01
2016,10,15,11,18,992.01
2016,10,15,11,19,991.98
2016,10,15,11,20,991.94
2016,10,15,11,21,991.94
2016,10,15,11,22,991.87
2016,10,15,11,23,991.84
2016,10,15,11,24,991.84
2016,10,15,11,25,991.81
2016,10,15,11,26,991.77
2016,10,15,11,27,991.77
2016,10,15,11,28,991.77
2016,10,15,11,29,991.74
2016,10,15,11,30,991.70
2016,10,15,11,31,991.64
2016,10,15,11,32,991.64
2016,10,15,11,33,991.57
2016,10,15,11,34,991.50
2016,10,15,11,35,991.43
2016,10,15,11,36,991.40
2016,10,15,11,37,991.37
2016,10,15,11,38,991.30
2016,10,15,11,39,991.26
2016,10,15,11,40,991.20
2016,10,15,11,41,991.16
2016,10,15,11,42,991.20
2016,10,15,11,43,991.13
2016,10,15,11,44,991.09
2016,10,15,11,45,991.12
2016,10,15,11,46,990.93
2016,10,15,11,47,990.96
2016,10,15,11,48,990.96
2016,10,15,11,49,990.92
2016,10,15,11,50,990.79
2016,10,15,11,51,990.76
2016,10,15,11,52,990.72
2016,10,15,11,53,990.72
2016,10,15,11,54,990.72
2016,10,15,11,55,990.55
2016,10,15,11,56,990.52
2016,10,15,11,57,990.55
2016,10,15,11,58,990.45
2016,10,15,11,59,990.32
2016,10,15,12,00,990.21
2016,10,15,12,01,990.28
2016,10,15,12,02,990.25
2016,10,15,12,03,990.27
2016,10,15,12,04,990.15
2016,10,15,12,05,990.17
2016,10,15,12,06,990.08
2016,10,15,12,07,990.08
2016,10,15,12,08,990.15
2016,10,15,12,09,990.11
2016,10,15,12,10,990.11
2016,10,15,12,11,990.11
2016,10,15,12,12,990.18
2016,10,15,12,13,989.94
2016,10,15,12,14,989.98
2016,10,15,12,15,989.94
2016,10,15,12,16,989.98
2016,10,15,12,17,989.91
2016,10,15,12,18,989.88
2016,10,15,12,19,989.81
2016,10,15,12,20,989.84
2016,10,15,12,21,989.77
2016,10,15,12,22,989.81
2016,10,15,12,23,989.84
2016,10,15,12,24,989.74
2016,10,15,12,25,989.67
2016,10,15,12,26,989.71
2016,10,15,12,27,989.74
2016,10,15,12,28,989.71
2016,10,15,12,29,989.57
2016,10,15,12,30,989.60
2016,10,15,12,31,989.57
2016,10,15,12,32,989.53
2016,10,15,12,33,989.44
2016,10,15,12,34,989.37
2016,10,15,12,35,989.30
2016,10,15,12,36,989.27
2016,10,15,12,37,989.16
2016,10,15,12,38,989.16
2016,10,15,12,39,989.16
2016,10,15,12,40,989.13
2016,10,15,12,41,989.16
2016,10,15,12,42,989.00
2016,10,15,12,43,988.89
2016,10,15,12,44,988.76
2016,10,15,12,45,988.79
2016,10,15,12,46,988.76
2016,10,15,12,47,988.66
2016,10,15,12,48,988.69
2016,10,15,12,49,988.55
2016,10,15,12,50,988.45
2016,10,15,12,51,988.45
2016,10,15,12,52,988.39
2016,10,15,12,53,988.35
2016,10,15,12,54,988.32
2016,10,15,12,55,988.32
2016,10,15,12,56,988.15
2016,10,15,12,57,988.22
2016,10,15,12,58,988.15
2016,10,15,12,59,988.05
2016,10,15,13,00,988.08
2016,10,15,13,01,988.05
2016,10,15,13,02,988.08
2016,10,15,13,03,988.05
2016,10,15,13,04,988.01
2016,10,15,13,05,987.98
2016,10,15,13,06,987.91
2016,10,15,13,07,987.84
2016,10,15,13,08,987.71
2016,10,15,13,09,987.74
2016,10,15,13,10,987.84
2016,10,15,13,11,987.62
2016,10,15,13,12,987.74
2016,10,15,13,13,987.67
2016,10,15,13,14,987.64
2016,10,15,13,15,987.53
2016,10,15,13,16,987.44
2016,10,15,13,17,987.40
2016,10,15,13,18,987.37
2016,10,15,13,19,987.33
2016,10,15,13,20,987.20
2016,10,15,13,21,987.13
2016,10,15,13,22,987.06
2016,10,15,13,23,987.03
2016,10,15,13,24,986.90
2016,10,15,13,25,986.96
2016,10,15,13,26,987.00
2016,10,15,13,27,986.96
2016,10,15,13,28,986.99
2016,10,15,13,29,986.83
2016,10,15,13,30,986.73
2016,10,15,13,31,986.73
2016,10,15,13,32,986.59
2016,10,15,13,33,986.52
2016,10,15,13,34,986.59
2016,10,15,13,35,986.59
2016,10,15,13,36,986.52
2016,10,15,13,37,986.52
2016,10,15,13,38,986.40
2016,10,15,13,39,986.49
2016,10,15,13,40,986.52
2016,10,15,13,41,986.52
2016,10,15,13,42,986.49
2016,10,15,13,43,986.42
2016,10,15,13,44,986.46
2016,10,15,13,45,986.42
2016,10,15,13,46,986.39
2016,10,15,13,47,986.32
2016,10,15,13,48,986.39
2016,10,15,13,49,986.32
2016,10,15,13,50,986.29
2016,10,15,13,51,986.22
2016,10,15,13,52,986.25
2016,10,15,13,53,986.25
2016,10,15,13,54,986.25
2016,10,15,13,55,986.21
2016,10,15,13,56,985.95
2016,10,15,13,57,985.91
2016,10,15,13,58,985.85
2016,10,15,13,59,985.78
2016,10,15,14,00,985.74
2016,10,15,14,01,985.78
2016,10,15,14,02,985.57
2016,10,15,14,03,985.47
2016,10,15,14,04,985.44
2016,10,15,14,05,985.43
2016,10,15,14,06,985.34
2016,10,15,14,07,985.30
2016,10,15,14,08,985.29
2016,10,15,14,09,985.20
2016,10,15,14,10,985.27
2016,10,15,14,11,985.18
2016,10,15,14,12,985.34
2016,10,15,14,13,985.30
2016,10,15,14,14,985.17
2016,10,15,14,15,985.27
2016,10,15,14,16,985.20
2016,10,15,14,17,985.17
2016,10,15,14,18,985.10
2016,10,15,14,19,985.24
2016,10,15,14,20,985.16
2016,10,15,14,21,985.07
2016,10,15,14,22,985.07
2016,10,15,14,23,985.10
2016,10,15,14,24,985.07
2016,10,15,14,25,985.03
2016,10,15,14,26,984.86
2016,10,15,14,27,984.83
2016,10,15,14,28,984.80
2016,10,15,14,29,984.69
2016,10,15,14,30,984.83
2016,10,15,14,31,984.80
2016,10,15,14,32,984.79
2016,10,15,14,33,984.69
2016,10,15,14,34,984.68
2016,10,15,14,35,984.53
2016,10,15,14,36,984.46
2016,10,15,14,37,984.42
2016,10,15,14,38,984.49
2016,10,15,14,39,984.63
2016,10,15,14,40,984.62
2016,10,15,14,41,984.46
2016,10,15,14,42,984.36
2016,10,15,14,43,984.25
2016,10,15,14,44,984.21
2016,10,15,14,45,984.07
2016,10,15,14,46,983.95
2016,10,15,14,47,983.95
2016,10,15,14,48,983.95
2016,10,15,14,49,984.05
2016,10,15,14,50,984.04
2016,10,15,14,51,983.95
2016,10,15,14,52,983.88
2016,10,15,14,53,983.88
2016,10,15,14,54,983.78
2016,10,15,14,55,983.78
2016,10,15,14,56,983.75
2016,10,15,14,57,983.68
2016,10,15,14,58,983.64
2016,10,15,14,59,983.63
2016,10,15,15,00,983.48
2016,10,15,15,01,983.43
2016,10,15,15,02,983.33
2016,10,15,15,03,983.20
2016,10,15,15,04,983.24
2016,10,15,15,05,983.31
2016,10,15,15,06,983.24
2016,10,15,15,07,983.20
2016,10,15,15,08,983.20
2016,10,15,15,09,983.17
2016,10,15,15,10,983.17
2016,10,15,15,11,983.14
2016,10,15,15,12,983.27
2016,10,15,15,13,983.10
2016,10,15,15,14,983.04
2016,10,15,15,15,983.00
2016,10,15,15,16,982.90
2016,10,15,15,17,982.80
2016,10,15,15,18,982.83
2016,10,15,15,19,982.73
2016,10,15,15,20,982.76
2016,10,15,15,21,982.70
2016,10,15,15,22,982.66
2016,10,15,15,23,982.70
2016,10,15,15,24,982.62
2016,10,15,15,25,982.53
2016,10,15,15,26,982.55
2016,10,15,15,27,982.36
2016,10,15,15,28,982.26
2016,10,15,15,29,982.26
2016,10,15,15,30,982.20
2016,10,15,15,31,982.32
2016,10,15,15,32,982.22
2016,10,15,15,33,982.16
2016,10,15,15,34,982.32
2016,10,15,15,35,982.15
2016,10,15,15,36,982.12
2016,10,15,15,37,982.11
2016,10,15,15,38,981.99
2016,10,15,15,39,982.05
2016,10,15,15,40,982.04
2016,10,15,15,41,981.82
2016,10,15,15,42,981.82
2016,10,15,15,43,981.75
2016,10,15,15,44,981.75
2016,10,15,15,45,981.76
2016,10,15,15,46,981.84
2016,10,15,15,47,981.74
2016,10,15,15,48,981.64
2016,10,15,15,49,981.50
2016,10,15,15,50,981.35
2016,10,15,15,51,981.48
2016,10,15,15,52,981.48
2016,10,15,15,53,981.41
2016,10,15,15,54,981.38
2016,10,15,15,55,981.34
2016,10,15,15,56,981.38
2016,10,15,15,57,981.41
2016,10,15,15,58,981.44
2016,10,15,15,59,981.48
2016,10,15,16,00,981.50
2016,10,15,16,01,981.31
2016,10,15,16,02,981.38
2016,10,15,16,03,981.34
2016,10,15,16,04,981.24
2016,10,15,16,05,981.27
2016,10,15,16,06,981.17
2016,10,15,16,07,981.27
2016,10,15,16,08,981.17
2016,10,15,16,09,981.30
2016,10,15,16,10,981.21
2016,10,15,16,11,981.17
2016,10,15,16,12,981.17
2016,10,15,16,13,981.15
2016,10,15,16,14,981.27
2016,10,15,16,15,981.24
2016,10,15,16,16,981.23
2016,10,15,16,17,981.14
2016,10,15,16,18,981.14
2016,10,15,16,19,981.14
2016,10,15,16,20,981.21
2016,10,15,16,21,981.16
2016,10,15,16,22,981.04
2016,10,15,16,23,981.04
2016,10,15,16,24,981.00
2016,10,15,16,25,981.04
2016,10,15,16,26,981.09
2016,10,15,16,27,980.97
2016,10,15,16,28,981.00
2016,10,15,16,29,980.97
2016,10,15,16,30,980.94
2016,10,15,16,31,980.94
2016,10,15,16,32,980.86
2016,10,15,16,33,980.70